sat.trackr.live / text

‹ back to catalog

STARLINK-33981

NORAD 63888 · 2025-094AA

PAYLOAD ACTIVE UNKNOWN

§ Identity

Operator
Country
US
Launch date
2025-05-10
Launch site
AFWTR
Launch vehicle
Mass (kg)
RCS (m²)

Purposes: comms

External: N2YO · Heavens-Above · Gunter

§ Orbital elements

Epoch: 2026-05-25T03:29:09.974976Z

Period
96.11 min
Inclination
70.0023°
Eccentricity
0.0002582
Mean motion
14.98338044 rev/d
Perigee alt
570.2 km
Apogee alt
573.8 km
Semi-major
6,950.2 km
B*
2.5315e-4
RAAN
41.7581°
Arg perigee
269.3127°
Mean anomaly
90.7736°
Rev number
5,865

§ Raw data

STARLINK-339811 63888U 25094AA  26145.14525434  .00002929  00000+0  25315-3 0  99992 63888  70.0023  41.7581 0002582 269.3127  90.7736 14.98338044 58650

JSON: /api/v1/satellites/63888 · /tle

For live sub-satellite position, see the globe view (requires WebGL).

§ Visibility from observer

Set your observer location to see the next 7 days of passes ≥ 10°. The values pass through the URL so the page stays shareable.

No JS? Fill the form by hand. The geolocation button needs JavaScript.